Theta_e
344 342 343 343 343 342 342 340 340 340 339 338 337 337 336 334 335 335 335 330 329 330 331 331 330 329 328 327 327 328 327 325 325 324 324 326 326 325 325 324 326 328 329
345 344 343 343 342 342 342 341 339 339 338 338 337 337 336 334 335 336 335 328 328 329 330 330 329 329 328 327 326 326 326 324 324 324 324 324 326 325 324 324 323 327 328
343 343 342 343 343 341 342 342 340 337 337 338 338 337 336 335 335 335 335 329 328 328 329 330 329 329 327 327 326 325 326 324 324 323 324 324 324 324 324 323 323 324 326
335 338 340 340 342 341 341 342 340 336 338 337 337 337 336 334 334 336 335 329 330 329 328 329 329 327 327 326 325 325 325 324 323 322 323 324 325 323 323 323 323 323 324
329 331 334 337 338 338 341 341 340 337 338 338 338 337 336 335 334 335 334 332 330 329 327 328 327 326 326 326 326 325 324 325 323 323 323 323 323 322 322 322 323 323 324
325 327 330 333 334 335 337 338 339 339 338 335 335 336 336 335 335 334 334 330 329 326 327 328 328 327 325 324 324 324 325 324 324 323 323 322 321 322 322 321 322 322 323
324 325 325 329 331 335 337 336 336 337 335 334 334 331 331 332 333 333 332 330 328 327 326 328 326 325 324 324 323 325 324 324 324 323 323 322 321 321 321 321 321 321 321
319 323 326 326 326 329 332 334 335 334 334 333 334 330 330 327 327 329 330 329 327 327 327 327 326 325 324 325 323 322 321 322 323 322 322 322 322 322 321 321 321 321 321
317 321 324 327 326 326 329 331 334 335 334 331 333 332 331 332 325 321 323 326 327 326 326 324 324 324 324 323 323 322 321 320 322 323 323 321 321 320 321 321 320 320 320
317 320 323 327 328 327 327 327 331 334 336 330 334 332 331 328 328 324 316 318 324 322 322 322 322 322 322 322 322 321 321 320 320 321 322 322 321 321 320 321 320 320 320
314 318 321 323 326 326 326 326 330 332 335 332 332 332 332 331 330 325 320 314 313 314 315 318 319 319 320 321 321 320 320 320 320 320 319 318 319 320 321 320 320 320 319
311 316 319 321 324 324 326 326 327 331 332 333 332 331 331 331 330 325 320 316 312 309 311 314 315 317 318 319 319 320 320 319 319 318 318 319 319 319 319 320 320 319 318
309 313 317 320 322 323 324 327 328 330 330 332 332 331 332 330 329 325 318 315 313 311 309 310 313 315 316 318 319 319 318 317 317 316 316 316 317 318 318 318 318 317 315
310 311 314 318 319 321 323 326 328 329 329 331 332 331 330 329 325 321 318 317 314 311 308 307 310 312 312 312 313 313 312 312 311 311 311 311 312 313 314 314 313 312 312
308 310 312 315 319 321 321 323 327 329 328 330 332 330 329 326 323 321 319 317 318 315 311 306 306 307 309 309 308 308 308 307 306 306 306 306 306 306 306 307 308 308 308
308 310 312 314 318 320 321 323 326 328 329 330 330 329 326 323 321 320 319 319 318 314 310 304 302 303 304 305 305 305 304 304 304 303 302 302 302 302 302 302 302 303 303
307 309 312 314 317 319 323 326 327 327 327 328 327 327 324 321 320 319 319 319 318 312 305 301 300 300 301 302 302 301 300 300 299 299 299 299 298 298 298 298 298 298 298
306 308 312 313 317 324 326 325 325 326 326 325 325 322 321 320 319 318 318 316 313 309 304 301 298 297 297 299 299 298 298 298 297 297 296 295 295 294 294 294 295 295 295
304 307 311 313 319 324 325 325 325 325 324 323 322 320 319 319 317 316 315 312 309 306 303 300 298 296 296 295 296 296 296 295 294 294 294 294 294 294 293 293 292 292 292
303 307 310 313 317 323 323 323 323 321 319 319 319 319 319 318 315 313 310 307 305 303 301 299 296 295 294 295 296 295 294 294 293 292 292 292 292 292 291 291 290 290 290
303 307 310 314 320 322 322 321 319 317 317 316 316 316 316 315 312 310 308 306 304 302 300 298 297 297 298 298 297 295 294 292 292 291 290 290 290 290 289 289 289 289 289
305 305 310 315 320 321 319 316 315 313 314 313 313 312 312 311 310 308 307 305 303 303 302 301 300 301 298 296 295 295 294 294 293 290 289 288 287 287 288 288 288 288 291
305 306 311 315 322 318 315 314 314 313 313 312 311 310 310 309 308 307 307 305 305 304 304 303 300 297 296 295 294 292 293 292 291 289 289 287 287 286 286 287 288 290 291
305 307 311 319 318 315 314 312 313 310 309 308 308 307 305 304 304 302 300 299 297 297 296 295 294 293 292 292 291 290 289 288 288 288 288 287 286 286 286 286 287 288 288
304 307 316 318 315 312 312 310 306 303 302 302 302 302 301 300 300 299 297 296 295 294 294 292 291 290 289 289 289 289 289 289 287 286 286 287 286 286 286 286 286 286 286
304 313 310 310 309 308 308 305 305 302 300 300 300 301 300 300 299 298 295 293 292 290 289 288 288 287 287 287 287 287 287 288 288 286 285 286 286 287 287 286 286 286 286
Wind_Speed
20 18 18 18 18 17 18 17 18 17 18 19 18 18 17 17 14 12 9 9 7 8 7 5 5 5 5 7 9 11 12 14 16 17 19 22 24 26 28 30 32 36 40
20 19 19 18 20 19 18 18 20 19 20 19 19 18 18 17 16 14 10 11 10 10 8 6 4 4 5 6 7 8 10 12 14 16 19 21 23 25 28 29 30 34 37
18 19 19 20 20 20 20 19 19 20 20 19 19 19 17 18 17 15 12 14 12 11 9 7 6 6 4 4 5 8 9 11 13 14 17 19 22 25 27 29 29 30 34
18 19 25 27 21 20 20 19 20 19 19 20 19 18 17 18 16 15 13 16 12 11 11 10 7 5 4 3 4 6 6 8 11 13 15 18 20 23 26 28 29 29 31
14 18 21 23 26 24 19 19 20 20 18 17 15 17 15 16 15 14 13 14 14 13 11 11 10 6 4 2 1 4 5 7 8 10 13 16 18 21 23 26 27 29 29
13 14 16 20 23 24 23 22 20 20 19 20 18 15 12 12 13 14 16 17 17 14 12 9 8 5 5 3 0 1 3 5 6 8 10 13 15 18 19 23 25 26 28
14 12 13 15 18 22 22 23 19 17 18 17 15 7 5 7 11 15 17 20 17 16 10 8 9 8 4 2 1 1 6 6 4 5 6 8 11 14 17 19 21 23 25
17 16 14 14 17 20 22 22 23 15 15 25 12 10 3 2 2 7 15 21 19 14 9 6 6 7 5 2 2 2 3 7 8 2 5 5 6 10 13 15 18 20 21
18 17 15 15 16 18 22 22 23 24 19 22 20 8 3 3 3 6 11 17 20 18 13 7 7 6 5 3 1 3 4 6 7 9 8 5 7 8 10 12 14 16 18
20 17 17 16 15 18 19 24 25 27 23 19 21 20 14 14 4 3 5 15 18 15 12 11 8 6 5 4 4 2 4 4 6 7 10 13 13 12 7 10 11 12 13
21 19 20 18 18 15 19 22 24 27 26 21 25 19 15 17 15 5 4 4 16 13 12 11 8 6 4 3 2 1 3 4 5 7 9 12 11 10 12 8 9 9 11
21 18 20 19 20 19 17 22 26 26 28 25 26 24 21 16 15 11 4 4 8 9 15 15 13 12 8 6 4 4 6 8 8 11 14 15 15 13 12 11 10 9 11
21 20 21 22 20 21 19 19 24 26 29 29 27 25 24 22 20 17 22 8 4 4 10 18 20 23 24 23 18 16 15 21 24 23 23 25 25 26 28 28 27 25 26
23 25 25 23 22 22 20 20 23 27 31 29 25 26 23 20 21 30 21 22 5 3 6 5 20 26 26 25 26 28 28 29 28 27 29 30 30 30 29 28 28 27 26
23 26 26 24 22 23 21 24 24 29 30 26 23 24 22 19 22 24 29 31 21 5 2 4 5 24 29 30 28 31 31 30 31 30 31 31 31 31 31 30 28 26 25
27 29 26 26 23 23 24 26 27 29 28 25 25 23 21 22 25 26 26 17 10 22 5 4 10 23 29 32 30 31 28 30 28 28 28 29 28 28 27 27 27 26 25
27 29 28 30 30 32 23 23 23 25 27 23 23 23 22 25 28 26 25 18 18 20 14 14 17 21 27 31 27 25 24 25 25 23 23 24 24 24 24 23 24 24 24
28 27 27 28 28 23 25 25 22 23 24 23 24 22 25 26 26 27 23 18 21 23 36 24 16 18 24 25 26 25 24 23 25 20 22 22 22 23 23 22 23 23 22
28 29 26 27 25 15 19 22 22 22 22 22 24 28 30 31 27 25 22 23 25 29 26 27 18 16 21 17 18 17 17 16 16 14 18 20 20 20 22 22 22 21 20
28 27 26 24 25 16 20 22 21 23 22 25 29 30 30 29 30 28 26 29 31 30 27 25 21 16 12 12 13 15 15 13 13 12 15 15 15 17 19 18 19 19 18
26 25 26 20 11 18 22 24 27 30 33 32 32 30 28 28 27 28 35 31 33 30 26 25 17 16 14 11 10 12 13 12 12 10 10 11 11 13 16 17 18 18 18
25 27 23 17 12 19 24 30 35 32 38 36 35 34 33 33 30 31 30 26 28 30 26 20 17 14 13 13 11 9 9 6 5 8 9 11 11 13 16 16 16 16 16
24 25 24 20 15 31 35 37 38 35 37 39 38 36 34 37 40 40 35 32 27 22 19 18 19 15 15 11 9 8 8 9 9 5 6 10 10 13 13 14 16 17 21
25 23 25 8 32 36 42 42 46 36 34 35 36 38 40 37 36 41 38 34 29 26 23 22 21 18 14 12 12 12 13 14 12 9 5 9 9 11 11 13 15 18 19
26 24 2 29 34 42 51 48 44 38 40 36 35 34 39 37 34 40 43 40 36 34 32 31 29 25 21 16 11 9 8 9 11 11 8 7 7 11 11 12 12 14 17
21 7 27 32 38 45 46 44 47 41 41 38 35 33 35 40 34 34 41 38 35 28 28 27 27 25 23 22 19 15 11 9 6 9 9 7 6 2 10 11 12 13 13
Wind_Direction
252 251 248 246 243 240 238 238 238 237 237 239 240 238 236 236 231 227 212 195 199 204 187 172 136 112 76 64 50 43 37 27 23 24 28 29 26 24 25 23 20 20 21
256 250 247 245 243 240 239 239 239 238 238 235 237 238 238 237 234 227 209 199 196 223 198 184 160 136 99 78 57 45 38 33 27 23 26 30 28 25 26 25 22 21 22
265 257 254 247 247 245 240 237 241 238 237 234 236 237 234 240 231 230 216 199 202 204 206 193 190 160 113 106 83 56 42 36 32 24 25 28 29 27 26 25 26 24 24
268 266 259 252 253 253 244 238 234 232 229 231 231 231 229 234 236 228 212 200 198 190 196 201 195 185 165 138 82 67 46 42 41 29 25 26 28 30 30 28 29 28 26
290 283 271 262 256 249 239 237 231 221 215 219 232 230 221 225 225 210 198 193 191 196 198 205 198 203 194 157 149 99 62 44 44 34 27 28 26 30 30 29 31 32 31
302 285 274 271 266 252 242 237 228 214 217 219 221 216 213 217 218 202 195 194 197 199 199 211 189 187 190 217 37 110 70 45 51 37 26 28 26 26 30 31 30 32 33
303 293 276 268 265 254 242 238 226 213 206 195 171 156 149 204 222 212 196 196 189 198 194 185 191 197 190 217 219 110 48 21 30 28 28 26 26 27 28 31 32 32 35
305 295 285 275 269 266 254 239 221 210 203 190 178 149 151 105 118 182 195 193 185 181 180 181 175 203 215 193 196 258 336 360 355 359 12 6 21 29 31 33 36 38 41
301 294 286 281 272 265 260 247 230 211 205 193 192 167 160 171 141 59 117 142 162 161 166 162 162 172 196 228 238 305 328 351 358 16 7 344 19 18 30 32 40 44 51
303 295 289 275 272 264 268 255 239 226 208 186 197 216 209 150 170 147 57 111 138 147 153 149 147 154 178 187 226 270 318 343 357 22 52 45 27 15 17 35 40 41 53
305 295 290 280 280 276 274 263 243 229 226 191 195 186 198 186 185 151 138 113 100 113 125 120 129 135 136 166 196 357 314 27 53 60 31 24 22 18 23 24 36 36 47
300 300 294 289 278 287 268 262 247 234 221 215 195 193 187 180 179 158 134 128 116 73 97 103 100 93 96 98 113 118 107 100 77 58 63 57 49 42 33 30 31 44 58
299 298 295 285 283 291 275 263 236 228 220 216 196 193 195 199 184 167 145 137 121 136 84 90 94 95 90 98 103 101 101 93 84 77 71 69 62 61 59 62 65 71 71
296 294 292 284 285 287 277 262 231 226 222 215 201 190 191 184 172 157 150 139 113 97 75 107 93 95 92 93 91 90 82 84 80 75 72 68 68 64 63 64 67 70 67
296 292 289 284 277 277 269 257 227 213 213 207 199 186 185 168 161 158 161 159 151 136 117 75 94 97 100 94 91 89 82 78 76 73 70 66 64 63 63 60 61 63 62
300 297 292 290 284 286 272 245 223 208 199 193 185 179 167 155 149 157 155 165 169 137 127 117 105 107 100 96 91 89 81 75 71 71 69 67 62 61 60 59 59 57 57
303 306 307 303 302 290 245 210 198 191 188 175 175 173 157 150 149 150 148 153 144 137 123 107 117 114 108 104 97 86 82 77 70 66 65 63 60 58 58 57 56 51 48
305 308 298 298 299 269 210 199 186 179 173 166 157 144 138 138 136 142 139 137 134 140 134 130 124 115 109 109 110 93 85 79 77 72 68 66 61 55 52 51 50 47 43
306 308 304 300 299 218 177 177 175 165 158 153 145 140 137 139 130 132 130 124 126 125 129 127 127 121 107 103 95 91 89 87 82 75 70 65 59 55 54 51 48 43 38
309 309 305 303 311 197 181 169 150 140 138 134 140 142 144 145 138 134 129 126 124 122 124 119 116 117 118 114 104 103 95 88 86 74 70 67 61 57 50 44 37 31 30
308 312 306 306 259 168 161 152 142 136 128 119 119 126 128 128 133 136 133 129 127 123 123 120 118 126 125 131 109 108 106 102 81 73 67 57 53 49 41 35 31 30 31
316 315 311 305 220 149 139 137 136 121 121 115 109 111 114 116 116 112 113 117 124 125 126 129 137 124 113 116 117 117 128 160 110 68 72 65 55 52 44 40 35 40 36
316 311 308 300 149 142 138 121 113 110 110 113 113 111 107 110 110 108 106 104 103 107 115 122 120 116 114 113 115 105 96 95 98 108 84 70 61 61 52 45 44 43 40
318 311 307 219 135 124 116 111 116 108 105 106 110 112 110 109 113 112 105 101 97 93 97 103 102 102 100 101 102 104 106 103 92 79 84 80 70 67 62 54 45 44 43
312 313 137 135 127 121 129 126 115 105 100 97 101 107 112 113 116 115 109 103 98 94 91 93 93 90 87 91 97 104 108 101 90 72 65 87 83 77 64 59 50 44 42
311 68 91 105 122 121 124 120 119 111 102 101 99 105 111 114 115 112 112 113 108 109 104 97 90 85 83 79 76 75 74 77 112 91 43 74 83 103 82 57 53 44 38